When you browse on this site, cookies collect data to enhance your experience and personalize the content and advertising you see.
Visit our Privacy Policy to learn more. By continuing to use the site, you agree to this use of cookies and data.
  • în România
  • Lista ţărilor
  • Pe 7 zile
  • Temperatura apei
  • Hartă satelitară
  • Meteo pe hartă
  • Widget-uri
  • user-avatar
    Intrare

    Meteo pe oră la Sari

    Astăzi, 18 Noiembrie, Duminică

    Timp Temperatura Precipitaţii Vânt Presiune Umiditate
    00:00 +15°C° 0 mm 1 m/s 763 mmHg 77%
    01:00 +15°C° 0 mm 1 m/s 763 mmHg 76%
    02:00 +15°C° 0 mm 1 m/s 763 mmHg 74%
    03:00 +15°C° 0 mm 1 m/s 763 mmHg 73%
    04:00 +15°C° 0 mm 1 m/s 763 mmHg 69%
    05:00 +15°C° 0 mm 1 m/s 763 mmHg 68%
    06:00 +14°C° 0 mm 1 m/s 763 mmHg 66%
    07:00 +14°C° 0 mm 1 m/s 763 mmHg 65%
    08:00 +16°C° 0 mm 1 m/s 763 mmHg 60%
    09:00 +19°C° 0 mm 1 m/s 763 mmHg 55%
    10:00 +21°C° 0 mm 1 m/s 763 mmHg 50%
    11:00 +21°C° 0 mm 1 m/s 762 mmHg 51%
    12:00 +21°C° 0 mm 2 m/s 762 mmHg 51%
    13:00 +21°C° 0 mm 2 m/s 762 mmHg 52%
    14:00 +21°C° 0 mm 2 m/s 762 mmHg 57%
    15:00 +20°C° 0 mm 2 m/s 762 mmHg 63%
    16:00 +19°C° 0 mm 2 m/s 761 mmHg 71%
    17:00 +18°C° 0 mm 2 m/s 761 mmHg 78%
    18:00 +18°C° 0 mm 1 m/s 762 mmHg 86%
    19:00 +16°C° 0 mm 1 m/s 762 mmHg 93%
    20:00 +16°C° 0 mm 1 m/s 762 mmHg 94%
    21:00 +15°C° 0 mm 1 m/s 762 mmHg 95%
    22:00 +15°C° 0 mm 1 m/s 762 mmHg 96%
    23:00 +15°C° 0 mm 1 m/s 762 mmHg 95%

    Mâine, 19 Noiembrie, Luni

    Timp Temperatura Precipitaţii Vânt Presiune Umiditate
    00:00 +15°C° 0 mm 1 m/s 762 mmHg 95%
    01:00 +15°C° 0 mm 1 m/s 762 mmHg 94%
    02:00 +15°C° 0.1 mm 1 m/s 762 mmHg 93%
    03:00 +14°C° 0.1 mm 1 m/s 762 mmHg 92%
    04:00 +14°C° 0.1 mm 1 m/s 762 mmHg 91%
    05:00 +14°C° 0.3 mm 2 m/s 762 mmHg 89%
    06:00 +14°C° 0.3 mm 2 m/s 762 mmHg 88%
    07:00 +13°C° 0.3 mm 3 m/s 763 mmHg 87%
    08:00 +14°C° 0.6 mm 3 m/s 763 mmHg 82%
    09:00 +16°C° 0.6 mm 3 m/s 763 mmHg 77%
    10:00 +17°C° 0.6 mm 3 m/s 763 mmHg 72%
    11:00 +17°C° 0.2 mm 3 m/s 763 mmHg 73%
    12:00 +17°C° 0.2 mm 3 m/s 763 mmHg 74%
    13:00 +17°C° 0.2 mm 3 m/s 763 mmHg 75%
    14:00 +17°C° 0 mm 3 m/s 763 mmHg 77%
    15:00 +17°C° 0 mm 2 m/s 763 mmHg 79%
    16:00 +17°C° 0 mm 2 m/s 763 mmHg 81%
    17:00 +16°C° 0 mm 2 m/s 763 mmHg 85%
    18:00 +15°C° 0 mm 2 m/s 764 mmHg 90%
    19:00 +15°C° 0 mm 2 m/s 764 mmHg 94%
    20:00 +14°C° 0 mm 2 m/s 764 mmHg 94%
    21:00 +14°C° 0 mm 1 m/s 764 mmHg 94%
    22:00 +14°C° 0 mm 1 m/s 764 mmHg 93%
    23:00 +14°C° 0 mm 1 m/s 764 mmHg 93%

    Poimâine, 20 Noiembrie, Marţi

    Timp Temperatura Precipitaţii Vânt Presiune Umiditate
    00:00 +13°C° 0 mm 2 m/s 764 mmHg 92%
    01:00 +13°C° 0 mm 2 m/s 764 mmHg 91%
    02:00 +13°C° 0 mm 2 m/s 764 mmHg 90%
    03:00 +13°C° 0 mm 2 m/s 764 mmHg 88%
    04:00 +13°C° 0 mm 2 m/s 764 mmHg 87%
    05:00 +13°C° 0 mm 2 m/s 764 mmHg 85%
    06:00 +13°C° 0 mm 2 m/s 764 mmHg 83%
    07:00 +13°C° 0 mm 2 m/s 764 mmHg 82%
    08:00 +14°C° 0 mm 2 m/s 764 mmHg 75%
    09:00 +16°C° 0 mm 3 m/s 764 mmHg 67%
    10:00 +18°C° 0 mm 3 m/s 764 mmHg 60%
    11:00 +19°C° 0 mm 3 m/s 763 mmHg 57%
    12:00 +20°C° 0 mm 3 m/s 763 mmHg 54%
    13:00 +20°C° 0 mm 4 m/s 762 mmHg 51%
    14:00 +20°C° 0 mm 3 m/s 761 mmHg 52%
    15:00 +20°C° 0 mm 3 m/s 761 mmHg 53%
    16:00 +19°C° 0 mm 3 m/s 761 mmHg 54%
    17:00 +18°C° 0 mm 3 m/s 761 mmHg 57%
    18:00 +17°C° 0 mm 3 m/s 760 mmHg 61%
    19:00 +16°C° 0 mm 2 m/s 760 mmHg 64%
    20:00 +16°C° 0 mm 2 m/s 760 mmHg 63%
    21:00 +16°C° 0 mm 2 m/s 760 mmHg 62%
    22:00 +16°C° 0 mm 2 m/s 760 mmHg 61%
    23:00 +16°C° 0 mm 2 m/s 760 mmHg 61%

    21 Noiembrie, Miercuri

    Timp Temperatura Precipitaţii Vânt Presiune Umiditate
    00:00 +16°C° 0 mm 2 m/s 759 mmHg 60%
    01:00 +16°C° 0 mm 2 m/s 759 mmHg 59%
    02:00 +16°C° 0 mm 1 m/s 759 mmHg 58%
    03:00 +16°C° 0 mm 1 m/s 759 mmHg 57%
    04:00 +16°C° 0 mm 1 m/s 758 mmHg 56%
    05:00 +16°C° 0 mm 1 m/s 758 mmHg 55%
    06:00 +16°C° 0 mm 1 m/s 758 mmHg 54%
    07:00 +16°C° 0 mm 1 m/s 758 mmHg 53%
    08:00 +18°C° 0 mm 1 m/s 759 mmHg 48%
    09:00 +20°C° 0 mm 1 m/s 759 mmHg 43%
    10:00 +21°C° 0 mm 2 m/s 759 mmHg 38%
    11:00 +21°C° 0 mm 2 m/s 759 mmHg 35%
    12:00 +23°C° 0 mm 2 m/s 759 mmHg 33%
    13:00 +24°C° 0 mm 2 m/s 758 mmHg 30%
    14:00 +23°C° 0 mm 2 m/s 758 mmHg 36%
    15:00 +23°C° 0 mm 2 m/s 758 mmHg 41%
    16:00 +21°C° 0 mm 3 m/s 758 mmHg 46%
    17:00 +19°C° 0 mm 2 m/s 758 mmHg 54%
    18:00 +18°C° 0 mm 2 m/s 759 mmHg 62%
    19:00 +16°C° 0 mm 1 m/s 759 mmHg 70%
    20:00 +16°C° 0 mm 1 m/s 759 mmHg 70%
    21:00 +15°C° 0 mm 1 m/s 759 mmHg 70%
    22:00 +15°C° 0 mm 1 m/s 759 mmHg 71%
    23:00 +15°C° 0 mm 1 m/s 759 mmHg 69%

    22 Noiembrie, Joi

    Timp Temperatura Precipitaţii Vânt Presiune Umiditate
    00:00 +15°C° 0 mm 2 m/s 758 mmHg 68%
    01:00 +15°C° 0 mm 2 m/s 758 mmHg 67%
    02:00 +15°C° 0 mm 2 m/s 758 mmHg 65%
    03:00 +15°C° 0 mm 2 m/s 757 mmHg 64%
    04:00 +15°C° 0 mm 2 m/s 757 mmHg 63%
    05:00 +15°C° 0 mm 2 m/s 757 mmHg 62%
    06:00 +14°C° 0 mm 3 m/s 757 mmHg 61%
    07:00 +14°C° 0 mm 3 m/s 757 mmHg 59%
    08:00 +17°C° 0 mm 3 m/s 757 mmHg 54%
    09:00 +19°C° 0 mm 3 m/s 757 mmHg 49%
    10:00 +21°C° 0 mm 3 m/s 757 mmHg 44%
    11:00 +22°C° 0 mm 3 m/s 757 mmHg 43%
    12:00 +24°C° 0 mm 3 m/s 756 mmHg 41%
    13:00 +25°C° 0 mm 3 m/s 756 mmHg 39%
    14:00 +24°C° 0 mm 3 m/s 756 mmHg 42%
    15:00 +23°C° 0 mm 2 m/s 756 mmHg 45%
    16:00 +23°C° 0 mm 2 m/s 755 mmHg 48%
    17:00 +20°C° 0 mm 2 m/s 756 mmHg 52%
    18:00 +19°C° 0 mm 2 m/s 756 mmHg 56%
    19:00 +17°C° 0 mm 2 m/s 756 mmHg 60%
    20:00 +17°C° 0 mm 2 m/s 757 mmHg 58%
    21:00 +17°C° 0 mm 2 m/s 757 mmHg 56%
    22:00 +17°C° 0 mm 2 m/s 757 mmHg 53%
    23:00 +17°C° 0 mm 2 m/s 757 mmHg 54%

    23 Noiembrie, Vineri

    Timp Temperatura Precipitaţii Vânt Presiune Umiditate
    00:00 +17°C° 0 mm 2 m/s 756 mmHg 55%
    01:00 +18°C° 0 mm 1 m/s 756 mmHg 56%
    02:00 +18°C° 0 mm 1 m/s 756 mmHg 54%
    03:00 +16°C° 0 mm 1 m/s 756 mmHg 53%
    04:00 +16°C° 0 mm 1 m/s 756 mmHg 51%
    05:00 +16°C° 0 mm 1 m/s 756 mmHg 51%
    06:00 +16°C° 0 mm 1 m/s 756 mmHg 51%
    07:00 +16°C° 0 mm 1 m/s 757 mmHg 51%
    08:00 +19°C° 0 mm 1 m/s 757 mmHg 47%
    09:00 +20°C° 0 mm 1 m/s 757 mmHg 44%
    10:00 +22°C° 0 mm 1 m/s 757 mmHg 40%
    11:00 +22°C° 0 mm 1 m/s 757 mmHg 40%
    12:00 +23°C° 0 mm 2 m/s 757 mmHg 40%
    13:00 +23°C° 0 mm 2 m/s 757 mmHg 40%
    14:00 +23°C° 0 mm 2 m/s 757 mmHg 46%
    15:00 +21°C° 0 mm 2 m/s 757 mmHg 52%
    16:00 +20°C° 0 mm 3 m/s 758 mmHg 58%
    17:00 +19°C° 0 mm 2 m/s 759 mmHg 65%
    18:00 +18°C° 0 mm 2 m/s 759 mmHg 73%
    19:00 +17°C° 0 mm 2 m/s 760 mmHg 81%
    20:00 +16°C° 0.1 mm 2 m/s 761 mmHg 84%
    21:00 +16°C° 0.1 mm 2 m/s 761 mmHg 86%
    22:00 +16°C° 0.1 mm 2 m/s 762 mmHg 89%
    23:00 +15°C° 0.2 mm 2 m/s 762 mmHg 91%
    Arată mai mult